Hollywood, FL

6:15 AM EDT on October 15, 2019 (GMT -0400)
North Perry

Weather History for KHWO - August, 2019

Change the Weather History Date:

Tuesday, August 13, 2019

  Actual Average (WUND) Record (WUND)
Temperature  
Mean Temperature 83 °F -  
Max Temperature 91 °F - - (-1)
Min Temperature 75 °F - - (-1)
Cooling Degree Days 18    
Growing Degree Days 33 (Base 50)    
Moisture  
Dew Point 75 °F    
Average Humidity 82    
Maximum Humidity 94    
Minimum Humidity 57    
Precipitation  
Precipitation 2.03 in - - ()
Sea Level Pressure  
Sea Level Pressure 29.98 in    
Wind  
Wind Speed 6 mph (SSW)    
Max Wind Speed 26 mph    
Max Gust Speed 36 mph    
Visibility 7 miles    
Events Rain , Thunderstorm    
Averages and records for this station are not official NWS values.
T = Trace of Precipitation, MM = Missing Value Source: NWS Daily Summary

Daily Weather History Graph

Daily Weather History Graph

Search for Another Location

Airport or City:

Astronomy

Aug. 13, 2019 Rise Set
Actual Time 6:52 AM EDT 7:58 PM EDT
Civil Twilight 6:28 AM EDT 8:22 PM EDT
Nautical Twilight 5:59 AM EDT 8:51 PM EDT
Astronomical Twilight 5:30 AM EDT 9:20 PM EDT
Moon 7:01 PM EDT (8/13) 5:05 AM EDT (8/13)
Length of Visible Light 13h 54m
Length of Day
13h 06m
Waxing Gibbous, 97% of the Moon is Illuminated
Aug 13
Waxing Gibbous
Aug 15
Full
Aug 23
Last Quarter
Aug 30
New
Sep 5
First Quarter

Hourly Weather History & Observations

Time (EDT) Temp. Heat Index Dew Point Humidity Pressure Visibility Wind Dir Wind Speed Gust Speed Precip Events Conditions
12:53 AM 81.0 °F 86.7 °F 75.0 °F 82% 29.97 in 10.0 mi Calm Calm - N/A   Clear
1:53 AM 80.1 °F 85.1 °F 75.0 °F 85% 29.96 in 10.0 mi Calm Calm - N/A   Clear
2:53 AM 80.1 °F 85.1 °F 75.0 °F 85% 29.94 in 10.0 mi Calm Calm - N/A   Clear
3:53 AM 80.1 °F 85.1 °F 75.0 °F 85% 29.94 in 10.0 mi Calm Calm - N/A   Clear
4:53 AM 79.0 °F - 75.9 °F 90% 29.93 in 10.0 mi Calm Calm - N/A   Clear
5:53 AM 79.0 °F - 75.0 °F 88% 29.94 in 10.0 mi Calm Calm - N/A   Clear
6:53 AM 79.0 °F - 75.0 °F 88% 29.95 in 10.0 mi Calm Calm - N/A   Clear
7:53 AM 82.0 °F 91.0 °F 78.1 °F 88% 29.97 in 10.0 mi Calm Calm - N/A   Clear
8:53 AM 86.0 °F 96.9 °F 77.0 °F 74% 29.98 in 10.0 mi SW 3.5 mph - N/A   Clear
9:53 AM 88.0 °F 98.5 °F 75.9 °F 67% 29.97 in 10.0 mi SSW 5.8 mph - N/A   Clear
10:53 AM 91.0 °F 102.9 °F 75.9 °F 61% 29.97 in 10.0 mi SW 4.6 mph - N/A   Scattered Clouds
11:53 AM 90.0 °F 100.2 °F 75.0 °F 61% 29.98 in 10.0 mi South 3.5 mph - N/A   Mostly Cloudy
12:20 PM 88.0 °F 97.5 °F 75.0 °F 65% 29.98 in 10.0 mi SE 13.8 mph - N/A Thunderstorm Thunderstorm
12:36 PM 84.0 °F 93.7 °F 77.0 °F 79% 29.96 in 2.0 mi SSE 17.3 mph - 0.11 in Rain , Thunderstorm Rain
12:43 PM 84.9 °F 95.3 °F 77.0 °F 77% 29.97 in 6.0 mi SSE 12.7 mph - 0.13 in Rain , Thunderstorm Rain
12:50 PM 86.0 °F 95.1 °F 75.2 °F 70% 29.97 in 9.0 mi South 11.5 mph - 0.13 in Rain , Thunderstorm Light Thunderstorms and Rain
12:53 PM 84.9 °F 93.3 °F 75.0 °F 72% 29.97 in 10.0 mi South 10.4 mph - 0.13 in Rain , Thunderstorm Light Thunderstorms and Rain
1:19 PM 82.0 °F 88.6 °F 75.0 °F 79% 29.98 in 9.0 mi West 6.9 mph - 0.02 in Rain , Thunderstorm Light Rain
1:53 PM 87.1 °F 98.8 °F 77.0 °F 72% 29.97 in 10.0 mi South 5.8 mph - 0.02 in Thunderstorm Partly Cloudy
2:07 PM 89.1 °F 99.1 °F 75.0 °F 63% 29.97 in 10.0 mi South 6.9 mph - N/A   Clear
2:53 PM 90.0 °F 100.2 °F 75.0 °F 61% 29.95 in 10.0 mi Variable 3.5 mph - N/A   Clear
3:53 PM 91.0 °F 102.9 °F 75.9 °F 61% 29.93 in 10.0 mi SSE 11.5 mph - N/A   Clear
4:53 PM 90.0 °F 97.9 °F 73.0 °F 57% 29.92 in 10.0 mi SSE 8.1 mph - N/A   Scattered Clouds
5:53 PM 89.1 °F 100.2 °F 75.9 °F 65% 29.92 in 10.0 mi SE 12.7 mph - N/A   Mostly Cloudy
6:53 PM 87.1 °F 97.3 °F 75.9 °F 69% 29.95 in 10.0 mi South 11.5 mph 18.4 mph N/A Thunderstorm Thunderstorm
7:05 PM 80.1 °F 84.2 °F 73.0 °F 79% 29.98 in 1.8 mi West 9.2 mph 32.2 mph 0.21 in Rain , Thunderstorm Heavy Thunderstorms and Rain
7:12 PM 80.1 °F 85.1 °F 75.0 °F 85% 29.97 in 1.0 mi WNW 20.7 mph 26.5 mph 0.54 in Rain , Thunderstorm Heavy Rain
7:20 PM 78.1 °F - 75.0 °F 90% 29.95 in 0.8 mi NNW 26.5 mph 34.5 mph 0.69 in Rain , Thunderstorm Heavy Thunderstorms and Rain
7:22 PM 78.1 °F - 75.0 °F 90% 29.96 in 1.2 mi NW 25.3 mph 34.5 mph 0.69 in Rain , Thunderstorm Heavy Thunderstorms and Rain
7:24 PM 78.1 °F - 73.9 °F 87% 29.96 in 2.0 mi NW 24.2 mph 34.5 mph 0.69 in Rain , Thunderstorm Thunderstorms and Rain
7:27 PM 78.1 °F - 73.9 °F 87% 29.97 in 4.0 mi NW 25.3 mph 35.7 mph 0.70 in Rain , Thunderstorm Light Thunderstorms and Rain
7:45 PM 78.1 °F - 75.0 °F 90% 29.99 in 2.5 mi NW 17.3 mph - 0.79 in Rain , Thunderstorm Heavy Thunderstorms and Rain
7:53 PM 77.0 °F - 73.9 °F 90% 30.01 in 1.2 mi WNW 9.2 mph - 1.01 in Rain , Thunderstorm Heavy Thunderstorms and Rain
8:00 PM 77.0 °F - 75.0 °F 94% 30.01 in 1.2 mi West 4.6 mph - 0.19 in Rain , Thunderstorm Heavy Thunderstorms and Rain
8:03 PM 75.9 °F - 73.9 °F 94% 30.00 in 0.8 mi SW 4.6 mph - 0.34 in Rain , Thunderstorm Heavy Thunderstorms and Rain
8:16 PM 75.9 °F - 73.9 °F 94% 30.00 in 1.2 mi East 6.9 mph - 0.70 in Rain , Thunderstorm Heavy Rain
8:22 PM 75.9 °F - 73.9 °F 94% 30.00 in 3.0 mi ESE 4.6 mph - 0.72 in Rain , Thunderstorm Heavy Thunderstorms and Rain
8:37 PM 77.0 °F - 75.0 °F 94% 30.01 in 10.0 mi South 4.6 mph - 0.73 in Rain Light Rain
8:53 PM 77.0 °F - 75.0 °F 94% 30.02 in 5.0 mi SSW 8.1 mph - 0.77 in Rain Rain
9:00 PM 77.0 °F - 75.0 °F 94% 30.03 in 7.0 mi SSW 9.2 mph - 0.01 in Rain , Thunderstorm Light Rain
9:08 PM 75.9 °F - 73.0 °F 91% 30.03 in 9.0 mi SSW 11.5 mph - 0.02 in Rain , Thunderstorm Light Thunderstorms and Rain
9:23 PM 75.9 °F - 73.0 °F 91% 30.03 in 10.0 mi SSE 5.8 mph - 0.02 in Rain , Thunderstorm Light Rain
9:50 PM 75.2 °F - 73.4 °F 94% 30.02 in 10.0 mi ESE 3.5 mph - 0.03 in Rain Light Rain
9:53 PM 75.9 °F - 73.9 °F 94% 30.02 in 10.0 mi SSE 3.5 mph - 0.03 in Rain Light Rain
10:09 PM 77.0 °F - 73.9 °F 90% 30.01 in 10.0 mi South 3.5 mph - 0.01 in Rain Light Rain
10:53 PM 77.0 °F - 73.9 °F 90% 29.99 in 8.0 mi SSW 5.8 mph - 0.05 in Rain Rain
11:53 PM 77.0 °F - 73.9 °F 90% 29.99 in 10.0 mi Calm Calm - 0.02 in   Clear